Change the Weather History Date:

Tuesday, September 4, 2012

  Actual Average (KMRH) Record (KMRH)
Temperature  
Mean Temperature 82 °F -  
Max Temperature 88 °F 85 °F 91 °F (1951)
Min Temperature 78 °F 69 °F 54 °F (1967)
Cooling Degree Days 18    
Growing Degree Days 32 (Base 50)    
Moisture  
Dew Point 74 °F    
Average Humidity 78    
Maximum Humidity 90    
Minimum Humidity 61    
Precipitation  
Precipitation 0.00 in - - ()
Sea Level Pressure  
Sea Level Pressure 30.03 in    
Wind  
Wind Speed 4 mph (South)    
Max Wind Speed 12 mph    
Max Gust Speed -    
Visibility 7 miles    
Events Rain    
Averages and records for this station are not official NWS values.
T = Trace of Precipitation, MM = Missing Value Source: NWS Daily Summary

Daily Weather History Graph

Daily Weather History Graph

Search for Another Location

Airport or City:

Trip Planner

Search our weather history database for the weather conditions in past years. The results will help you decide how hot, cold, wet, or windy it might be!

Date:

Astronomy

Sep. 04, 2012 Rise Set
Actual Time 6:41 AM EDT 7:27 PM EDT
Civil Twilight 6:15 AM EDT 7:53 PM EDT
Nautical Twilight 5:44 AM EDT 8:23 PM EDT
Astronomical Twilight 5:13 AM EDT 8:54 PM EDT
Moon 9:32 PM EDT (9/4) 10:33 AM EDT (9/4)
Length of Visible Light 13h 38m
Length of Day
12h 46m
Waning Gibbous, 84% of the Moon is Illuminated
Sep 4
Waning Gibbous
Sep 8
Last Quarter
Sep 15
New
Sep 22
First Quarter
Sep 29
Full

Hourly Weather History & Observations

Time (EDT) Temp. Heat Index Dew Point Humidity Pressure Visibility Wind Dir Wind Speed Gust Speed Precip Events Conditions
12:56 AM 79.0 °F - 75.0 °F 88% 30.06 in 5.0 mi Calm Calm - N/A   Clear
1:56 AM 78.1 °F - 75.0 °F 90% 30.05 in 5.0 mi South 3.5 mph - N/A   Clear
2:56 AM 79.0 °F - 75.9 °F 90% 30.04 in 5.0 mi South 3.5 mph - N/A   Clear
3:56 AM 78.1 °F - 75.0 °F 90% 30.03 in 4.0 mi SSW 3.5 mph - N/A   Partly Cloudy
4:39 AM 78.8 °F - 75.2 °F 89% 30.02 in 5.0 mi South 3.5 mph - 0.00 in   Mostly Cloudy
4:56 AM 78.1 °F - 75.0 °F 90% 30.03 in 5.0 mi SSW 3.5 mph - 0.00 in Rain Light Rain
5:20 AM 78.8 °F - 75.2 °F 89% 30.02 in 7.0 mi SSW 3.5 mph - 0.00 in   Mostly Cloudy
5:56 AM 78.1 °F - 73.9 °F 87% 30.04 in 6.0 mi South 3.5 mph - 0.00 in   Scattered Clouds
6:07 AM 78.8 °F - 73.4 °F 83% 30.03 in 6.0 mi SSE 3.5 mph - N/A   Mostly Cloudy
6:31 AM 78.8 °F - 75.2 °F 89% 30.04 in 5.0 mi SSE 4.6 mph - N/A   Mostly Cloudy
6:56 AM 78.1 °F - 73.9 °F 87% 30.06 in 5.0 mi SSW 3.5 mph - N/A   Scattered Clouds
7:49 AM 78.8 °F - 73.4 °F 83% 30.06 in 2.0 mi Calm Calm - N/A   Haze
7:56 AM 79.0 °F - 73.0 °F 82% 30.07 in 6.0 mi Calm Calm - N/A   Haze
8:56 AM 82.9 °F 89.4 °F 73.9 °F 74% 30.07 in 7.0 mi Calm Calm - N/A   Partly Cloudy
9:56 AM 84.0 °F 91.9 °F 75.0 °F 74% 30.07 in 7.0 mi Calm Calm - N/A   Clear
10:26 AM 86.0 °F 95.1 °F 75.2 °F 70% 30.06 in 8.0 mi SSE 4.6 mph - N/A   Mostly Cloudy
10:56 AM 79.0 °F - 72.0 °F 79% 30.07 in 7.0 mi SE 6.9 mph - 0.00 in Rain Light Rain
11:56 AM 84.9 °F 91.4 °F 73.0 °F 67% 30.06 in 8.0 mi SSE 6.9 mph - 0.00 in   Partly Cloudy
12:56 PM 87.1 °F 94.5 °F 73.0 °F 63% 30.04 in 9.0 mi South 6.9 mph - N/A   Mostly Cloudy
1:13 PM 84.2 °F 90.9 °F 73.4 °F 70% 30.03 in 7.0 mi Variable 5.8 mph - N/A   Overcast
1:56 PM 84.9 °F 92.1 °F 73.9 °F 69% 30.03 in 8.0 mi Calm Calm - N/A   Overcast
2:56 PM 87.1 °F 93.6 °F 72.0 °F 61% 30.01 in 9.0 mi SSW 10.4 mph - N/A   Mostly Cloudy
3:56 PM 84.9 °F 91.4 °F 73.0 °F 67% 30.00 in 8.0 mi SW 11.5 mph - N/A   Partly Cloudy
4:56 PM 86.0 °F 93.8 °F 73.9 °F 67% 29.99 in 8.0 mi SSW 10.4 mph - N/A   Scattered Clouds
5:56 PM 84.9 °F 91.4 °F 73.0 °F 67% 29.99 in 8.0 mi SSW 11.5 mph - N/A   Clear
6:56 PM 84.0 °F 90.2 °F 73.0 °F 69% 29.99 in 8.0 mi South 9.2 mph - N/A   Clear
7:56 PM 81.0 °F 85.2 °F 72.0 °F 74% 29.99 in 10.0 mi South 4.6 mph - N/A   Clear
8:56 PM 79.0 °F - 72.0 °F 79% 30.01 in 10.0 mi South 4.6 mph - N/A   Clear
9:56 PM 79.0 °F - 72.0 °F 79% 30.01 in 10.0 mi South 5.8 mph - N/A   Clear
11:56 PM 78.1 °F - 72.0 °F 81% 30.00 in 10.0 mi South 4.6 mph - N/A   Clear